Погода на Таракане

Индонезия     3°20′28″N   117°35′58″E
темп.,
°C
ветер,
м/с
пор.,
м/с
влажн.,
%
обл.,
%
осадки,
мм/ч
давл.,
гПа
погр.,
м
2 марта, вт
вт223:00+27св2380100 0.1 1013343
02:00+27ссз2384100 4.1 1011145
05:00+25сз3389100 2.1 1011170
08:00+26сз2285100 2.1 1013212
11:00+29в016652 0.0 1013484
14:00+31всв346261 0.1 1009846
17:00+30в456997 0.1 1008394
20:00+28всв598098 0.9 1011485
3 марта, ср
ср323:00+28св71080100 2.5 1012664
02:00+27ссв578490 6.4 1011380
05:00+26ссз3584100 3.1 1011381
08:00+26ссз358395 3.9 1013342
11:00+29ссв236265 0.0 1013931
14:00+31всв446047 0.0 10101010
17:00+29всв567412 0.2 1009564
20:00+27всв46816 3.0 1012369
4 марта, чт
чт423:00+27всв458170 3.4 1013456
02:00+26ссв338285 6.5 1012224
05:00+26с238586 3.3 1012166
08:00+26ссз348793 6.4 1014159
11:00+28с227050 2.4 1014504
14:00+29юв326443 2.7 1011735
17:00+29вюв3367100 0.1 1009493
20:00+28вюв3473100 0.1 1012409
5 марта, пт
пт523:00+27в227424 0.0 1013504
02:00+26з228237 0.9 1011117
05:00+25зсз228673 0.1 1011153
08:00+26зсз338353 0.7 1013203
11:00+29юв116719 0.1 1013464
14:00+30в345718 0.1 1009868
17:00+29в45645 0.0 1008520
20:00+28в45749 0.1 1011397
6 марта, сб
сб623:00+27всв34761 0.4 1012465
02:00+26зюз11816 5.8 101173
05:00+25зсз338744 1.9 1010133
08:00+25сз238638 2.1 1013247
11:00+28св127428 1.3 1012299
14:00+30св456027 1.4 1010992
17:00+29всв466712 0.1 1010789
20:00+28всв457811 0.1 1012506